Faaa International Airport


Codes: NTAA/PPT
Name: Faaa International Airport
City: Papeete
Country: French Polynesia
Elevation: 5 ft.
Wikipedia:

Photos at Faaa International Airport


   Photos courtesy of SpottingLog. You can add your own sightings and photos by signing up for a free trial today.



No photos found.

Weather at Faaa International Airport


Time (UTC)DescriptionTempratureWindCloud coverageVisibilityPressureHumidity
16-Jun-2024 03:00Light Rain28°C18 mph, E53%10000m1014hPa70%
16-Jun-2024 06:00Scattered Clouds27°C18 mph, E31%10000m1016hPa75%
16-Jun-2024 09:00Light Rain26°C18 mph, E16%10000m1017hPa81%
16-Jun-2024 12:00Light Rain26°C18 mph, E16%10000m1016hPa79%
16-Jun-2024 15:00Light Rain26°C18 mph, E14%10000m1016hPa78%
16-Jun-2024 18:00Light Rain26°C18 mph, E14%10000m1018hPa78%
16-Jun-2024 21:00Clear Sky26°C16 mph, E7%10000m1017hPa78%
17-Jun-2024 00:00Clear Sky26°C16 mph, E7%10000m1015hPa78%
17-Jun-2024 03:00Clear Sky26°C13 mph, E10%10000m1014hPa78%
17-Jun-2024 06:00Clear Sky26°C13 mph, E9%10000m1015hPa77%
17-Jun-2024 09:00Light Rain26°C11 mph, E19%10000m1015hPa76%
17-Jun-2024 12:00Light Rain26°C9 mph, SE13%10000m1015hPa75%
17-Jun-2024 15:00Few Clouds26°C4 mph, SE12%10000m1015hPa76%
17-Jun-2024 18:00Light Rain26°C4 mph, SE25%10000m1016hPa77%
17-Jun-2024 21:00Light Rain26°C4 mph, S42%10000m1016hPa78%
18-Jun-2024 00:00Light Rain25°C9 mph, S46%10000m1014hPa79%
18-Jun-2024 03:00Light Rain25°C16 mph, S25%10000m1014hPa80%
18-Jun-2024 06:00Light Rain25°C18 mph, S35%10000m1015hPa80%
18-Jun-2024 09:00Scattered Clouds25°C18 mph, S44%10000m1015hPa72%
18-Jun-2024 12:00Scattered Clouds25°C16 mph, SE29%10000m1014hPa70%
18-Jun-2024 15:00Few Clouds25°C16 mph, SE13%10000m1013hPa73%
18-Jun-2024 18:00Scattered Clouds25°C18 mph, SE26%10000m1015hPa69%
18-Jun-2024 21:00Scattered Clouds24°C16 mph, SE49%10000m1015hPa66%
19-Jun-2024 00:00Scattered Clouds24°C16 mph, SE26%10000m1014hPa64%
19-Jun-2024 03:00Clear Sky25°C18 mph, SE1%10000m1014hPa63%
19-Jun-2024 06:00Clear Sky25°C16 mph, SE2%10000m1016hPa62%
19-Jun-2024 09:00Clear Sky25°C16 mph, SE2%10000m1016hPa61%
19-Jun-2024 12:00Clear Sky24°C16 mph, SE4%10000m1015hPa64%
19-Jun-2024 15:00Clear Sky25°C18 mph, SE6%10000m1014hPa63%
19-Jun-2024 18:00Clear Sky25°C16 mph, E7%10000m1015hPa63%
19-Jun-2024 21:00Clear Sky25°C13 mph, E7%10000m1015hPa65%
20-Jun-2024 00:00Clear Sky25°C13 mph, E8%10000m1013hPa66%
20-Jun-2024 03:00Few Clouds25°C16 mph, E17%10000m1013hPa69%
20-Jun-2024 06:00Light Rain25°C20 mph, E38%10000m1015hPa76%
20-Jun-2024 09:00Light Rain25°C18 mph, E56%10000m1015hPa67%
20-Jun-2024 12:00Scattered Clouds25°C16 mph, E35%10000m1014hPa64%
20-Jun-2024 15:00Scattered Clouds25°C16 mph, E25%10000m1014hPa65%
20-Jun-2024 18:00Scattered Clouds25°C18 mph, E34%10000m1015hPa73%
20-Jun-2024 21:00Light Rain25°C18 mph, NE37%10000m1015hPa73%
21-Jun-2024 00:00Light Rain26°C16 mph, NE37%10000m1013hPa71%